Flag for U.S.A. Weather past 2 weeks in Menominee, Michigan, U.S.A.

Now
52 °F

Sunny.


Feels Like: 48 °F
Forecast: 40 / 53 °F
Wind: 12 mph from Southwest

Location: Menominee Weather Reporting Station

Current Time: Oct 23, 2014 at 10:58:13 AM

Latest Report: Oct 23, 2014 at 10:35 AM


Visibility: 10 mi

Pressure: 30.12 "Hg

Humidity: 58%

Dew point: 37 °F

Location of MenomineeLocation

Historic Weather in Menominee — Graph

°F

Menominee temperature yesterday

Maximum temperature yesterday: 48 °F (at 12:35 PM)
Minimum temperature yesterday: 28 °F (at 4:15 AM)
Average temperature yesterday: 39 °F

Past Weeks' High & Low Weather Summary

 TemperatureHumidityPressure
High57 °F (Oct 13, 1:55 PM)100% (Oct 22, 4:15 AM)30.39 "Hg (Oct 22, 4:15 AM)
Low28 °F (Oct 22, 4:15 AM)43% (Oct 18, 3:55 PM)29.43 "Hg (Oct 17, 5:55 AM)
Average46 °F81%29.92 "Hg
* Reported Oct 12 10:35 PM — Oct 23 9:55 AM, Menominee, Weather by CustomWeather, © 2014

Note: Actual official high and low records may vary slightly from our data, if they occured in-between our weather recording intervals... More about our weather records

Advertising

Menominee weather history for previous 24 hours

 ConditionsComfort  
Time TempWeatherWind HumidityBarometerVisibility
9:55 AM
Oct 23
50 °FSunny.10 mph67%30.14 "Hg10 mi
9:35 AM48 °FSunny.9 mph71%30.14 "Hg10 mi
9:15 AM46 °FSunny.10 mph76%30.14 "Hg10 mi
8:55 AM45 °FSunny.7 mph81%30.15 "Hg10 mi
8:35 AM37 °FSunny.3 mph100%30.15 "Hg8 mi
8:15 AM34 °FSunny.No wind87%30.15 "Hg7 mi
7:55 AM32 °FSunny.No wind93%30.15 "Hg5 mi
7:35 AM30 °FSunny.No wind100%30.15 "Hg5 mi
7:15 AM32 °FClear.No wind93%30.16 "Hg5 mi
6:55 AM34 °FClear.No wind87%30.17 "Hg7 mi
6:35 AM34 °FClear.No wind87%30.17 "Hg5 mi
6:15 AM36 °FClear.No wind93%30.17 "Hg2 mi
5:55 AM37 °FDense fog.No wind87%30.17 "Hg1 mi
5:35 AM39 °FClear.No wind93%30.18 "Hg10 mi
5:15 AM39 °FClear.3 mph93%30.18 "Hg10 mi
4:55 AM39 °FClear.3 mph87%30.18 "Hg10 mi
4:35 AM39 °FClear.5 mph93%30.18 "Hg10 mi
4:15 AM39 °FClear.5 mph93%30.18 "Hg8 mi
3:55 AM39 °FClear.3 mph93%30.18 "Hg9 mi
3:35 AM39 °FClear.5 mph93%30.19 "Hg8 mi
3:15 AM39 °FClear.3 mph87%30.19 "Hg4 mi
2:55 AM39 °FClear.No wind87%30.19 "Hg7 mi
2:35 AM39 °FClear.3 mph87%30.20 "Hg10 mi
2:15 AM39 °FClear.5 mph87%30.20 "Hg10 mi
1:55 AM39 °FClear.5 mph93%30.20 "Hg10 mi
1:35 AM39 °FClear.6 mph93%30.20 "Hg10 mi
1:15 AM39 °FClear.6 mph87%30.21 "Hg10 mi
12:55 AM39 °FClear.5 mph87%30.22 "Hg10 mi
12:35 AM39 °FClear.6 mph87%30.23 "Hg10 mi
12:15 AM39 °FClear.7 mph87%30.22 "Hg10 mi
11:55 PM
Oct 22
39 °FClear.3 mph93%30.23 "Hg10 mi
11:35 PM39 °FClear.5 mph87%30.23 "Hg10 mi
11:15 PM39 °FClear.6 mph87%30.24 "Hg10 mi
10:55 PM39 °FClear.5 mph93%30.25 "Hg8 mi
10:35 PM39 °FClear.5 mph93%30.25 "Hg10 mi
10:15 PM39 °FClear.6 mph87%30.26 "Hg10 mi
9:55 PM39 °FClear.5 mph87%30.25 "Hg10 mi
9:35 PM39 °FClear.7 mph87%30.25 "Hg10 mi
9:15 PM39 °FClear.5 mph87%30.26 "Hg10 mi
8:55 PM39 °FClear.5 mph87%30.26 "Hg10 mi
8:35 PM39 °FClear.5 mph87%30.26 "Hg10 mi
8:15 PM41 °FClear.5 mph81%30.26 "Hg10 mi
7:55 PM41 °FClear.5 mph76%30.26 "Hg10 mi
7:35 PM41 °FClear.7 mph81%30.26 "Hg10 mi
7:15 PM43 °FClear.6 mph76%30.26 "Hg10 mi
6:55 PM43 °FClear.6 mph76%30.26 "Hg10 mi
6:35 PM43 °FClear.7 mph76%30.27 "Hg10 mi
6:15 PM43 °FClear.7 mph76%30.27 "Hg10 mi
5:55 PM45 °FClear.8 mph71%30.27 "Hg10 mi
5:35 PM45 °FSunny.7 mph71%30.28 "Hg10 mi
5:15 PM46 °FSunny.8 mph66%30.28 "Hg10 mi
4:55 PM46 °FSunny.7 mph66%30.28 "Hg10 mi
4:35 PM46 °FSunny.8 mph66%30.29 "Hg10 mi
4:15 PM48 °FSunny.10 mph62%30.29 "Hg10 mi
3:55 PM48 °FSunny.8 mph62%30.30 "Hg10 mi
3:35 PM48 °FSunny.9 mph62%30.30 "Hg10 mi
3:15 PM48 °FSunny.8 mph62%30.31 "Hg10 mi
2:55 PM48 °FSunny.10 mph62%30.31 "Hg10 mi
2:35 PM48 °FSunny.12 mph62%30.32 "Hg10 mi
2:15 PM48 °FSunny.9 mph62%30.32 "Hg10 mi
1:55 PM48 °FSunny.9 mph62%30.33 "Hg10 mi
1:35 PM48 °FSunny.8 mph62%30.34 "Hg10 mi
1:15 PM48 °FSunny.3 mph62%30.35 "Hg10 mi
12:55 PM48 °FSunny.8 mph62%30.36 "Hg10 mi
12:35 PM48 °FSunny.10 mph62%30.37 "Hg10 mi
12:15 PM46 °FSunny.8 mph66%30.38 "Hg10 mi
11:55 AM46 °FSunny.9 mph66%30.38 "Hg10 mi
11:35 AM46 °FPassing clouds.12 mph66%30.39 "Hg10 mi
11:15 AM46 °FScattered clouds.10 mph66%30.38 "Hg10 mi
10:55 AM46 °FPartly sunny.8 mph66%30.39 "Hg10 mi
10:35 AM45 °FPartly sunny.5 mph71%30.38 "Hg10 mi
10:15 AM43 °FPartly sunny.3 mph81%30.39 "Hg10 mi
Weather by CustomWeather, © 2014

See weather overviewHow to use our weather pages